Simultaneous Nadir Overpasses (SNOs) Predictions

Prediction of SNOs between GOES-16 and LANDSAT-8 Satellite Orbit:

Table of predicted SNOs for the next 14.0 days since TLE Epoch: 5/20/2023
Index Date Time (GOES-16) GOES-16 Lat,Lon LANDSAT-8 Lat,Lon Distance(km) Time Diff (sec)
1 05/20/2023 14:59:40 0.01, -75.20 -0.55, -72.44 312.81 80
2 05/21/2023 03:23:45 -0.01, -75.20 -0.52, -77.64 277.69 80
3 05/23/2023 03:08:54 -0.01, -75.21 0.08, -74.68 59.37 80
4 05/25/2023 02:56:44 0.00, -75.22 0.75, -71.73 396.98 80
5 05/25/2023 15:20:40 0.00, -75.23 0.33, -76.89 188.37 80
6 05/27/2023 15:05:49 -0.00, -75.25 -0.30, -73.93 150.52 80
7 05/28/2023 03:29:53 -0.00, -75.26 -0.82, -79.12 439.11 80
8 05/29/2023 14:53:38 -0.00, -75.28 -0.94, -70.97 490.23 80
9 05/30/2023 03:17:42 -0.00, -75.29 -0.17, -76.16 99.20 80
10 06/01/2023 03:02:50 -0.00, -75.32 0.43, -73.19 241.25 80
11 06/01/2023 15:26:46 0.01, -75.33 0.64, -78.35 343.56 80
